www.pogodaiklimat.ru

Погода и климат >> Архив погоды >> Россия >> Алтай >> Чемал


АРХИВ ПОГОДЫ в Чемале

Время (UTC), дата Ветер
(напр.,м/с)
 
Видим.   Явления Облачность Т
(С)
Тd
(С)
f
(%)
Тe
(С)
Тes
(С)
Комфортность P
(гПа)
Po
(гПа)
Тmin
(С)
Tmax
(С)
R
(мм)
R24
(мм)
S
(см)
18 14.05 штиль 0 50 км 10/10 1000 м
[Sc]
+3.0 -1.8 71 +2 +2 1007.3 956.8
21 14.05 В 1 50 км 10/10 1000 м
[Sc]
+2.7 -1.5 74 +1 +1 1003.6 953.2
00 15.05 С 1 50 км в посл. час ливневой дождь 8/8 600 м
[Cb cap]
+1.5 -0.1 89 -0 0 1005.8 955.1 +1.1 0.9
03 15.05 С 1 2000 м ливневой снег 10/10 300 м
[Cb cap]
+1.4 -1.0 84 -0 -0 1011.1 960.1
06 15.05 СЗ 3 10 км слаб. ливневой снег 10/10 300 м
[Cb cap]
+2.7 0.0 82 -1 -1 1013.9 963.0
09 15.05 С 3 50 км {ливн. осадки} 9/9 600 м
[Cb cap]
+6.8 -1.6 55 +4 +5 1014.8 964.6
12 15.05 С 1 50 км {ливн. осадки} 9/9 1000 м
[Cb cap]
+4.8 -2.3 60 +4 +4 1018.3 967.6 +7.3 0.9
15 15.05 штиль 0 50 км в посл. час ливневой дождь 10/10 600 м
[Cb cap]
+3.0 -1.8 71 +2 +2 1021.5 970.3
18 15.05 ЮВ 1 50 км {ливн. осадки} 10/10 1000 м
[Cb cap]
+2.2 -1.8 75 +1 +1 1022.5 971.1
21 15.05 В 1 50 км 9/9 1000 м
[Cb cap]
+1.4 -1.4 82 -0 -0 1022.8 971.2
00 16.05 штиль 0 10 км 10/10 300 м
[Cb cap]
+1.9 -0.8 82 +1 +1 1023.4 971.9 +1.1 0.1
03 16.05 СЗ 1 10 км ливневой снег 10/10 300 м
[Cb cap]
+2.4 -1.0 78 +1 +1 1024.1 972.6
06 16.05 СЗ 2 10 км слаб. ливневой снег 10/10 300 м
[Cb cap]
+4.3 +1.1 80 +2 +2 1023.3 972.3
09 16.05 СЗ 2 50 км {ливн. осадки} 6/6 1000 м
[Cu med, cong]
+9.6 -3.6 39 +9 +13 1020.3 970.3
12 16.05 В 3
{10}
20 км слаб. град [макс. диам. градин 4 мм] 8/8 600 м
[Cb cap]
+6.3 -0.4 62 +4 +4 1020.8 970.2 +10.6 0.4
15 16.05 В 1 50 км {ливн. осадки} 6/4 600 м
[Cb cap Ci fib]
+2.2 +0.1 86 +1 +1 1023.1 971.7
18 16.05 В 2 50 км {ливн. осадки} 5/3 1000 м
[Sc Ci sp]
-0.1 -2.2 86 -4 -4 1024.0 972.0
21 16.05 штиль 0 50 км 3/0
[Ci sp]
-2.3 -3.8 89 -3 -3 1024.6 972.2
00 17.05 штиль 0 50 км 9/6 1000 м
[Sc Ci fib]
-1.0 -2.5 90 -2 -2 1025.5 973.3 -2.7 0.1
03 17.05 В 1 50 км 6/6 1000 м
[Cu med, cong]
+4.7 -1.9 62 +4 +8 1024.7 973.6
06 17.05 СВ 2 50 км ясно +9.5 -4.6 37 +9 +25 опасность
простуды
1023.1 972.9
09 17.05 СЗ 3 50 км 8/8 1000 м
[Cu med, cong]
+11.7 -4.9 31 +11 +12 1022.0 972.2
12 17.05 С 2 50 км 8/8 1000 м
[Cu med, cong]
+10.1 -4.8 35 +9 +10 1022.8 972.7 +12.2
15 17.05 штиль 0 50 км {ливн. осадки} ясно +3.0 -1.4 73 +2 +2 1026.3 974.8
18 17.05 Ю 1 50 км {ливн. осадки} 3/0
[Ci]
+0.8 -2.6 78 -1 -1 1027.1 975.2
21 17.05 ЮВ 1 50 км ясно -0.7 -4.0 78 -3 -3 1026.5 974.3
00 18.05 ЮВ 2 50 км 3/0
[Ci fib]
-0.1 -4.4 73 -3 -2 1025.8 973.8 -1.2 0.1
03 18.05 ЮВ 2 50 км 3/0
[Cs]
+10.4 -4.8 34 +10 +19 1021.1 971.0
06 18.05 Ю 2 50 км 8/0
[Ac trans]
+16.8 -10.0 15 +17 +26 1016.5 967.8
09 18.05 В 4 50 км 6/0
[Cc]
+20.1 -9.0 13 +20 +26 1012.7 964.8
12 18.05 ЮЗ 2 50 км 3/0
[Ci fib]
+21.7 -9.1 12 +20 +22 1010.2 962.6 +22.2
15 18.05 В 2 50 км 3/0
[Ci fib]
+12.9 -4.8 29 +13 +13 1012.2 963.1
18 18.05 Ю 1 50 км 1/0
[Ci fib]
+5.7 -2.9 54 +5 +5 1014.5 964.1
21 18.05 В 2 50 км 9/0
[Ac As]
+7.5 -4.3 43 +6 +6 1013.6 963.5
00 19.05 В 3 50 км 8/0
[Ac trans Ci]
+6.8 -3.3 49 +4 +5 1014.0 963.8 +5.4
03 19.05 Ю 2 50 км 8/0
[Ci]
+18.7 -7.2 17 +19 +27 1009.6 961.6
06 19.05 ЮВ 2 50 км 8/0
[Ac trans Ci fib]
+26.2 -8.3 10 +23 +35 комфорт 1006.3 959.6
09 19.05 ЮЗ 4-10
{11}
50 км 10/5 1000 м
[Sc Ac und]
+25.3 -10.2 9 +22 +24 комфорт 1007.1 960.2
12 19.05 ЮЗ 2
{10}
50 км 9/5 1000 м
[Sc Ac trans]
+24.2 -6.4 13 +22 +23 комфорт 1008.3 961.2 +27.0
15 19.05 В 1 50 км {ливн. осадки} 8/8 1000 м
[Sc]
+18.7 -0.9 27 +20 +20 1010.2 962.2
18 19.05 В 3 50 км {ливн. осадки} 10/10 1000 м
[Sc]
+18.0 -1.3 27 +18 +18 1009.4 961.3
21 19.05 В 2 50 км 10/10 1000 м
[Sc]
+14.8 +0.7 38 +15 +15 1009.3 960.7
00 20.05 Ю 1 50 км 10/6 1000 м
[Sc Ac und]
+15.5 +1.5 39 +16 +17 1009.7 961.2 +13.0 0.0
03 20.05 Ю 1 50 км 9/6 1000 м
[Sc Ac und]
+20.0 +2.4 31 +21 +24 комфорт 1010.1 962.3
06 20.05 З 2
{10}
50 км 9/8 1000 м
[Cb cap Ac trans]
+21.5 +3.9 31 +22 +24 комфорт 1009.1 961.6
09 20.05 В 3 50 км 6/6 1000 м
[Cb cap]
+21.8 +5.9 36 +22 +26 комфорт 1009.0 961.6
12 20.05 СЗ 1
{10}
50 км 8/6 1000 м
[Sc Ci fib]
+19.9 +8.4 47 +22 +23 комфорт 1009.0 961.3 +22.5
15 20.05 В 4 50 км 10/8 1000 м
[Sc As op]
+17.8 +7.7 52 +18 +18 1006.4 958.5
18 20.05 В 2 50 км 10/10 1000 м
[Sc]
+16.8 +6.3 50 +17 +17 1005.3 957.3
21 20.05 ЮВ 3-10
{10}
50 км 10/10 1000 м
[Sc]
+19.0 +6.3 43 +20 +20 1003.2 955.6
00 21.05 ЮВ 2
{10}
50 км 10/6 1000 м
[Sc Ac trans Ci fib]
+18.2 +7.0 48 +19 +19 1003.3 955.6 +15.4
03 21.05 ЮВ 2 50 км 9/8 1000 м
[Sc Ci fib]
+21.4 +6.9 39 +22 +24 комфорт 1002.3 955.1
06 21.05 В 1 10 км слаб. ливневой дождь 10/10 1000 м
[Cb cap]
+17.2 +12.5 74 +18 +18 1001.7 954.0
09 21.05 З 3 10 км слаб. ливневой дождь 10/10 600 м
[Cb cap]
+14.6 +12.3 86 +14 +14 1004.2 955.9
12 21.05 штиль 0 2000 м слаб. ливневой дождь 10/10 300 м
[Cb cap]
+11.8 +10.5 92 +11 +11 1007.3 958.5 +22.1 9
15 21.05 штиль 0 4000 м {ливн. осадки} 10/10 300 м
[Cb cap]
+11.1 +9.8 92 +10 +10 1007.5 958.5

 

Местоположение метеостанции Чемал (Алтай, Россия): широта 51.38 долгота 86.02 высота над уровнем моря 419 м.

В архиве по умолчанию представлена погода в Чемале за последнюю неделю. Архивные данные за месяц целиком и за предыдущие месяцы, начиная с января 2011 года, Вы можете получить, выбрав интересующий диапазон дат из раскрывающегося списка и нажав кнопку "Ввод!".


*Определитесь, кто Вы:
робот инопланетянин человек

Внимание! Время в таблицах - всемирное. Для получения местного времени необходимо прибавить поправку, которая равна 7 ч.

Смотрите также архив погоды в соседних городах и на ближайших метеорологических станциях:

Погода в Шебалино (Алтай, Россия) (25 км)
Погода в Кызыл-Озеке (Алтай, Россия) (58 км)
Погода в Горно-Алтайске (Алтай, Россия) (67 км)
Погода в Онгудае (Алтай, Россия) (70 км)
Погода в Чое (Алтай, Россия) (77 км)
Погода в Белокурихе (Алтайский край, Россия) (98 км)
Погода в Усть-Кане (Алтай, Россия) (102 км)
Погода в Семинском перевале (Алтай, Россия) (106 км)
Погода в Яйлю (Алтай, Россия) (118 км)
Погода в Солонешном (Алтайский край, Россия) (120 км)

Пояснения к столбцам:

Ветер - указаны скорость ветра в м/с - средняя за 10 мин, порывы в срок и между сроками (в фигурных скобках) и направление, откуда дует ветер: С - северный, СВ - северо-восточный, В - восточный, ЮВ - юго-восточный, Ю - южный, ЮЗ - юго-западный, З - западный, СЗ - северо-западный.
Видимость - горизонтальная дальность видимости в метрах или километрах. При видимости от 1 до 10 км при отсутствии осадков обычно наблюдается дымка, при ухудшении видимости до 1 км и менее - туман. В сухую погоду видимость может ухудшаться дымом, пылью или мглою.
Явления - указаны атмосферные явления, наблюдавшиеся в срок или в последний час перед сроком; фигурными скобками обозначены явления, наблюдавшиеся между сроками (за 1-3 часа до срока); квадратными скобками обозначены град или гололедные отложения с указанием их диаметра в мм.
Облачность - указаны через наклонную черту общая и нижняя облачность в баллах и высота нижней границы облаков в метрах; квадратными скобками обозначены формы облаков: Ci - перистые, Cs - перисто-слоистые, Cc - перисто-кучевые, Ac - высококучевые, As - высокослоистые, Sc - слоисто-кучевые, Ns - слоисто-дождевые, Cu - кучевые, Cb - кучево-дождевые. Подробнее классификацию облаков см. в Атласе облаков (PDF).
T - Температура воздуха - температура, измеренная на высоте 2 м над землей.
Td - Температура точки росы - температура, при понижении до которой содержащийся в воздухе водяной пар достигнет насыщения.
f - Относительная влажность воздуха - влажноcть воздуха, измеренная на высоте 2 м над землей.
Te - Эффективная температура - температура, которую ощущает одетый по сезону человек в тени. Характеристика душности погоды. При расчете учитывается влияние влажности воздуха и скорости ветра на теплоощущения человека.
Tes - Эффективная температура на солнце - температура, которую ощущает человек, с поправкой на солнечный нагрев. Характеристика знойности погоды. Зависит от высоты солнца над горизонтом, облачности и скорости ветра. Ночью, в пасмурную погоду, а также при ветре 12 м/с и более поправка равна нулю.
P - Атмосферное давление - приведенное к уровню моря атмосферное давление.
Po - Атмосферное давление - измеренное на уровне метеостанции атмосферное давление.
Tmin - Минимальная температура - минимум температуры воздуха на высоте 2 м над землей.
Tmax - Максимальная температура - максимум температуры воздуха на высоте 2 м над землей.
R - Количество осадков - Количество выпавших осадков за период времени, мм. При наведении курсора мыши на число - период времени, за который выпало указанное количество осадков.
R24 - Количество осадков - Количество выпавших осадков за 24 часа, мм.
S - Снежный покров - Высота снежного покрова, см. При наведении курсора мыши на число - состояние снежного покрова и степень покрытия местности в баллах.